Weather History for Dodge City, KS

Change the Weather History Date:

Friday, December 16, 2011

  Actual Average Record
Temperature  
Mean Temperature 36 °F -  
Max Temperature 48 °F 44 °F 70 °F (1962)
Min Temperature 25 °F 21 °F -1 °F (1989)
Degree Days  
Heating Degree Days 28    
Moisture  
Dew Point 24 °F    
Average Humidity 70    
Maximum Humidity 82    
Minimum Humidity 49    
Precipitation  
Precipitation 0.00 in - - ()
Sea Level Pressure  
Sea Level Pressure 30.39 in    
Wind  
Wind Speed 9 mph (SW)    
Max Wind Speed 17 mph    
Max Gust Speed 22 mph    
Visibility 10 miles    
Events      
Averages and records for this station are not official NWS values.
T = Trace of Precipitation, MM = Missing Value Source: NWS Daily Summary

Daily Weather History Graph

Daily Weather History Graph

Search for Another Location

Airport:

Trip Planner

Search our weather history database for the weather conditions in past years. The results will help you decide how hot, cold, wet, or windy it might be!

Date:

Astronomy

Dec. 16, 2011 Rise Set
Actual Time 7:48 AM CST 5:22 PM CST
Civil Twilight 7:19 AM CST 5:51 PM CST
Nautical Twilight 6:46 AM CST 6:24 PM CST
Astronomical Twilight 6:14 AM CST 6:56 PM CST
Moon 11:51 PM CST (12/16) 11:41 AM CST (12/16)
Length of Visible Light 10h 32m
Length of Day
9h 33m
Waning Gibbous, 64% of the Moon is Illuminated
Dec 16
Waning Gibbous
Dec 17
Last Quarter
Dec 24
New
Jan 1
First Quarter
Jan 9
Full

Hourly Weather History & Observations

Time (CST) Temp. Windchill Dew Point Humidity Pressure Visibility Wind Dir Wind Speed Gust Speed Precip Events Conditions
12:52 AM 26.1 °F 19.4 °F 19.9 °F 78% 30.40 in 10.0 mi SSW 5.8 mph - N/A   Clear
1:52 AM 27.0 °F 19.5 °F 19.9 °F 75% 30.38 in 10.0 mi South 6.9 mph - N/A   Clear
2:52 AM 28.0 °F 22.8 °F 19.9 °F 72% 30.38 in 10.0 mi SSW 4.6 mph - N/A   Partly Cloudy
3:52 AM 25.0 °F 16.3 °F 19.0 °F 78% 30.38 in 10.0 mi South 8.1 mph - N/A   Partly Cloudy
4:52 AM 25.0 °F 16.3 °F 19.0 °F 78% 30.39 in 10.0 mi South 8.1 mph - N/A   Clear
5:52 AM 26.6 °F 18.2 °F 19.4 °F 74% 30.34 in 10.0 mi South 8.1 mph - N/A   Clear
6:52 AM 26.1 °F 17.6 °F 19.9 °F 78% 30.42 in 10.0 mi South 8.1 mph - N/A   Clear
7:52 AM 27.0 °F 19.5 °F 19.9 °F 75% 30.41 in 10.0 mi South 6.9 mph - N/A   Clear
8:52 AM 28.9 °F 20.4 °F 21.9 °F 75% 30.43 in 10.0 mi South 9.2 mph - N/A   Clear
9:52 AM 34.0 °F 24.6 °F 25.0 °F 70% 30.43 in 10.0 mi South 13.8 mph - N/A   Clear
10:52 AM 37.0 °F 27.4 °F 25.0 °F 62% 30.44 in 10.0 mi SSW 17.3 mph - N/A   Clear
11:52 AM 39.9 °F 31.1 °F 26.1 °F 58% 30.43 in 10.0 mi SSW 17.3 mph - N/A   Clear
12:52 PM 43.0 °F 35.7 °F 26.1 °F 51% 30.40 in 10.0 mi SSW 15.0 mph - N/A   Clear
1:52 PM 45.0 °F 37.6 °F 27.0 °F 49% 30.36 in 10.0 mi SSW 17.3 mph 20.7 mph N/A   Clear
2:52 PM 46.9 °F - 28.9 °F 50% 30.34 in 10.0 mi SW 17.3 mph 21.9 mph N/A   Clear
3:52 PM 48.0 °F - 30.0 °F 50% 30.32 in 10.0 mi SW 13.8 mph - N/A   Clear
4:52 PM 46.0 °F 41.9 °F 30.9 °F 56% 30.35 in 10.0 mi WSW 8.1 mph - N/A   Clear
5:52 PM 37.4 °F 31.4 °F 28.4 °F 70% 30.31 in 10.0 mi West 8.1 mph - N/A   Clear
6:52 PM 34.0 °F 26.6 °F 27.0 °F 75% 30.39 in 10.0 mi WNW 9.2 mph - N/A   Clear
7:52 PM 35.1 °F 28.6 °F 28.0 °F 76% 30.40 in 10.0 mi WNW 8.1 mph - N/A   Clear
8:52 PM 30.0 °F 22.4 °F 25.0 °F 82% 30.43 in 9.0 mi NW 8.1 mph - N/A   Clear
9:52 PM 30.9 °F 22.8 °F 25.0 °F 79% 30.43 in 9.0 mi NW 9.2 mph - N/A   Clear
10:52 PM 30.0 °F 22.4 °F 24.1 °F 79% 30.43 in 10.0 mi NNW 8.1 mph - N/A   Clear
11:52 PM 28.9 °F 23.9 °F 24.1 °F 82% 30.43 in 10.0 mi WNW 4.6 mph - N/A   Clear